Weather Roundup
Issued by NWS Springfield, MO

Home | Current Version | Previous Version | Text Only | Print | Product List | Glossary On
Versions: 1 2 3 4 5 6 7 8 9 10 11 12 13 14 15 16 17 18 19 20 21 22 23 24 25 26 27 28 29 30 31 32 33 34 35 36 37 38 39 40 41 42 43 44 45 46 47 48 49 50
000
NZUS99 KSGF 230859
HRRSGF

HOURLY WEATHER
NATIONAL WEATHER SERVICE SPRINGFIELD MO
400 AM CDT WED JUL 23 2014

......SGF CWA......

CITY           SKY/WX    TMP DP  RH WIND       PRES   REMARKS
SPRINGFIELD    PTCLDY    78  74  87 W3        30.08S
JOPLIN         PTCLDY    79  75  87 MISG      30.08F
WEST PLAINS    MOCLDY    73  68  84 SW5       30.08F
ROLLA          CLEAR     75  72  90 SW6       30.03F
OSAGE BEACH    MOCLDY    75  73  94 CALM      30.04S
BRANSON        MOCLDY    75  73  94 CALM      30.10S

......SURROUNDING SGF CWA......

CITY           SKY/WX    TMP DP  RH WIND       PRES   REMARKS
CHANUTE        CLEAR     78  74  87 SW5       30.08F
PARSONS        CLEAR     77  74  90 N7        30.10R
COFFEYVILLE    PTCLDY    76  74  93 NE3       30.07S
EMPORIA        CLEAR     78  75  90 N5        30.10F
GROVE OK       MOCLDY    77  77 100 CALM      30.09R FOG
SILOAM SPRINGS MOCLDY    75  68  78 S3        30.12R
HARRISON AR    CLOUDY    77  74  90 CALM      30.10S
NEAR YELLVILLE CLEAR     75  66  73 W3        30.07S

......KANSAS AND MISSOURI......

CITY           SKY/WX    TMP DP  RH WIND       PRES   REMARKS
KANSAS CTY INT PTCLDY    75  69  81 NE14      30.10F
DOWNTOWN KC    CLEAR     79  70  74 NE10      30.08F
COLUMBIA       CLEAR     80  76  87 N9        30.05S
SEDALIA        CLEAR     79  73  82 N7        30.07S
ST JOSEPH      CLEAR     71  67  87 N6        30.12S
ST LOUIS       CLOUDY    82  73  74 W9        30.00S
SPIRIT OF STL  CLOUDY    79  74  84 CALM      30.00S
KIRKSVILLE     CLEAR     72  68  87 N10       30.11R
WICHITA        CLEAR     76  72  87 W7        30.10F
TOPEKA         PTCLDY    78  71  79 N7        30.11S
OLATHE         CLEAR     79  70  74 NE10      30.08F

......TENNESSEE......

CITY           SKY/WX    TMP DP  RH WIND       PRES   REMARKS
MEMPHIS        CLEAR     78  69  73 CALM      30.04F
NASHVILLE      CLEAR     74  71  91 CALM      30.07R

......ARKANSAS.......

CITY           SKY/WX    TMP DP  RH WIND       PRES   REMARKS
FAYETTEVILLE   MOCLDY    72  71  97 CALM      30.11S
FT SMITH       CLEAR     78  74  87 N3        30.07S
LITTLE ROCK    CLEAR     73  69  87 CALM      30.05F FOG

......OKLAHOMA.......

CITY           SKY/WX    TMP DP  RH WIND       PRES   REMARKS
TULSA          PTCLDY    80  75  84 CALM      30.06S
PONCA CITY     CLEAR     76  73  91 CALM      30.09S FOG
MCALESTER      PTCLDY    75  72  90 S3        30.09F
OKLAHOMA CITY  PTCLDY    76  73  91 S3        30.11S

......IOWA............

CITY           SKY/WX    TMP DP  RH WIND       PRES   REMARKS
DES MOINES     PTCLDY    70  59  68 N10       30.15R
QUAD CITIES    CLEAR     73  65  75 N7        30.07R

......ILLINOIS........

CITY           SKY/WX    TMP DP  RH WIND       PRES   REMARKS
QUINCY         CLEAR     75  70  84 N13       30.05R
CHICAGO        PTCLDY    66  53  63 N16G28    30.06F



USA.gov is the U.S. government's official web portal to all federal, state and local government web resources and services.